Home   Weather   Solothurn   Past weeks

Flag for Switzerland Past Weather in Solothurn, Solothurn, Switzerland — Yesterday and Last 2 Weeks

Now
51 °F

Cool.


Feels Like: 51 °F
Forecast: 45 / 58 °F
Wind: 1 mph from East

Location: Grenchen

Current Time: Oct 1, 2016 at 7:03:41 AM

Latest Report: Oct 1, 2016 at 6:00 AM


Visibility: N/A

Pressure: 29.95 "Hg

Humidity: 99%

Dew Point: 51 °F

Location of SolothurnLocation

Past Weather in Solothurn — Graph

°F

Solothurn Temperature Yesterday

Maximum temperature yesterday: 74 °F (at 4:00 PM)
Minimum temperature yesterday: 44 °F (at 6:00 AM)
Average temperature yesterday: 59 °F

High & Low Weather Summary for the Past Weeks

 TemperatureHumidityPressure
High74 °F (Sep 30, 4:00 PM)100% (Sep 22, 12:00 AM)30.50 "Hg (Sep 22, 12:00 AM)
Low43 °F (Sep 22, 7:00 AM)38% (Sep 30, 3:00 PM)29.93 "Hg (Sep 18, 3:00 PM)
Average57 °F86%30.16 "Hg
* Reported Sep 16 5:00 AM — Oct 1 5:00 AM, Solothurn, Weather by CustomWeather, © 2016

Note: Actual official high and low records may vary slightly from our data, if they occured in-between our weather recording intervals... More about our weather records

Advertising

Solothurn Weather History for the Previous 24 Hours

Scroll right to see more
 ConditionsComfort  
Time TempWeatherWind HumidityBarometerVisibility
5:00 AM
Sat, Oct 1
52 °FCool.1 mph99%29.96 "HgN/A
3:00 AM54 °FCool.1 mph98%29.97 "HgN/A
2:00 AM53 °FCool.1 mph95%29.99 "HgN/A
1:00 AM55 °FCool.1 mph94%29.98 "HgN/A
12:00 AM55 °FCool.2 mph91%29.99 "HgN/A
11:00 PM
Fri, Sep 30
56 °FCool.2 mph87%30.00 "HgN/A
10:00 PM58 °FCool.5 mph82%30.00 "HgN/A
9:00 PM57 °FCool.8 mph85%30.00 "HgN/A
8:00 PM61 °FCool.1 mph73%29.98 "HgN/A
7:00 PM68 °FMild.1 mph53%29.95 "HgN/A
6:00 PM73 °FMild.6 mph44%29.94 "HgN/A
5:00 PM74 °FMild.12 mph41%29.95 "HgN/A
4:00 PM74 °FMild.13 mph38%29.96 "HgN/A
3:00 PM74 °FMild.14 mph38%29.99 "HgN/A
2:00 PM72 °FMild.21 mph39%30.01 "HgN/A
1:00 PM70 °FMild.17 mph47%30.04 "HgN/A
12:00 PM67 °FMild.9 mph58%30.07 "HgN/A
11:00 AM63 °FMild.7 mph69%30.10 "HgN/A
10:00 AM58 °FCool.1 mph85%30.12 "HgN/A
9:00 AM52 °FCool.1 mph97%30.14 "HgN/A
8:00 AM46 °FCool.1 mph99%30.15 "HgN/A
7:00 AM45 °FCool.1 mph100%30.15 "HgN/A
Weather by CustomWeather, © 2016

See weather overviewHow to use our weather pages